Weather in Chkalovskiy

Russia / Orenburg Oblast     53°29′21″N   52°56′16″E
temp.,
°C
wind,
m/s
gust,
m/s
humid.,
%
clouds,
%
prec.,
mm/h
press.,
hPa
HPBL,
m
19 september, sun
sun1923:00+7nw4856100 0.1 1020559
02:00+5nw476814 0.0 1021426
05:00+1wnw22882 0.0 102237
08:00+1wnw29875 0.0 1023286
11:00+7nw5658100 0.0 1024953
14:00+10nw564428 0.0 10241370
17:00+11nw55395 0.0 10231469
20:00+6nnw225551 0.0 102418
20 september, mon
mon2023:00+4nnw2264100 0.0 102510
02:00+4nnw116569 0.0 102510
05:00+2n117216 0.0 102610
08:00+2ne117196 0.0 102611
11:00+9ene334833 0.0 1026734
14:00+11ne323864 0.0 10261182
17:00+12ne3334100 0.0 10251281
20:00+7ne484990 0.0 1026133
21 september, tue
tue2123:00+6e4951100 0.0 1026251
02:00+7e4850100 0.0 1026294
05:00+6e4851100 0.0 1026312
08:00+6e4752100 0.0 1026299
11:00+9ese4643100 0.0 1025483
14:00+12ese4534100 0.0 1024648
17:00+11ese3640100 0.0 1024313
20:00+10ese3841100 0.0 1023258
22 september, wed
wed2223:00+10ese3840100 0.0 1023288
02:00+10e4845100 0.0 1022286
05:00+11ese51144100 0.0 1021366
08:00+11ese5941100 0.0 1021293
11:00+14sse5741100 0.0 1022555
14:00+13se3745100 0.0 1023515
17:00+10se2788100 1.0 1023414
20:00+10se2684100 0.5 1024311
23 september, thu
thu2323:00+10ese3674100 0.8 1024225
02:00+9e4869100 0.2 1024237
05:00+10ese3758100 0.2 1025156
08:00+10ese3753100 0.0 1025144
11:00+15se583667 0.0 1025467
14:00+15se5733100 0.0 1026524
17:00+15ese3635100 0.0 1025361
20:00+13sse2437100 0.0 102687